Dobrodošli na spletni strani vremenske postaje Senovo. Vse informacije so informativnega značaja, saj vremenska postaja ni del državne mreže meteoroloških postaj. OBVESTILO: Letni količini padavin navedeni na spletni strani je potrebno prišteti 98,1 mm, zaradi izgube podatkov.


Dež Od: 15-12-2017 00:00 Do: 23:59 Opozorilo za: Dež Stopnja: Rumena info button
Veter Od: 15-12-2017 00:00 Do: 17:59 Opozorilo za: Veter Stopnja: Rumena info button

Pogled proti Armezu več informacij Pogled proti Armezu


Lisca več informacij Lisca


Radar strel več informacij blitzortung!


opozorilo za Dež več informacij rain snow radar


Obiščite še:

Template documentation
and downloads

And another site



Weather Underground, zgodovina - Tekstovno

Dnevni povzetek za Avgust 12, 2017 Enote:  Metrično    Angleško   Obe
« Predhodni Dan
Naslednji Dan »
Dnevni Tedenski Mesečni Letni Po meri
  Višja: Nižja: Povprečje:
Temperatura: 21.8 °C 14.1 °C 17.4 °C
Točka rosišča: 17.2 °C 11.8 °C 14.9 °C
Vlažnost: 94 % 67 % 86 %
Hitrost vetra: 7.4 km/h 0.0 km/h 1.8 km/h
Sunki vetra: 19.1 km/h - -
Veter:- - South
Zračni tlak: 1018.2 hPa 1012.1 hPa -
Padavine: 0.0 mm    
Historical Graphs
 
 
Tabelarni podarki za Avgust 12, 2017
Čas Temperatura Točka rosišča Zračni tlak Veter Hitrost vetra Sunki vetra Vlažnost Intenziteta padavin (urna)
00:03 14.7 °C 12.0 °C 1013.1 hPa WNW 0.5 km/h 3.2 km/h 84 % 0.0 mm
00:08 14.6 °C 11.9 °C 1013.1 hPa WNW 0.5 km/h 3.2 km/h 84 % 0.0 mm
00:13 14.5 °C 12.0 °C 1013.1 hPa Calm   1.4 km/h 85 % 0.0 mm
00:18 14.5 °C 12.0 °C 1013.1 hPa Calm   1.4 km/h 85 % 0.0 mm
00:19 14.4 °C 12.1 °C 1013.1 hPa Calm   1.4 km/h 86 % 0.0 mm
00:24 14.4 °C 11.9 °C 1013.1 hPa Calm   1.4 km/h 85 % 0.0 mm
00:29 14.4 °C 11.9 °C 1013.1 hPa Calm     85 % 0.0 mm
00:34 14.3 °C 11.8 °C 1012.1 hPa Calm     85 % 0.0 mm
00:39 14.3 °C 11.8 °C 1012.1 hPa Calm     85 % 0.0 mm
00:44 14.2 °C 11.9 °C 1012.1 hPa Calm     86 % 0.0 mm
00:49 14.2 °C 11.9 °C 1013.1 hPa Calm     86 % 0.0 mm
00:54 14.1 °C 11.8 °C 1013.1 hPa Calm   1.4 km/h 86 % 0.0 mm
00:59 14.1 °C 11.8 °C 1013.1 hPa Calm   1.4 km/h 86 % 0.0 mm
01:04 14.1 °C 11.9 °C 1013.1 hPa Calm     87 % 0.0 mm
01:09 14.1 °C 12.2 °C 1013.1 hPa Calm     88 % 0.0 mm
01:14 14.1 °C 12.2 °C 1013.1 hPa Calm     88 % 0.0 mm
01:19 14.2 °C 12.2 °C 1013.1 hPa Calm     88 % 0.0 mm
01:24 14.2 °C 12.2 °C 1013.1 hPa Calm     88 % 0.0 mm
01:29 14.3 °C 12.3 °C 1013.1 hPa Calm     88 % 0.0 mm
01:34 14.4 °C 12.6 °C 1012.1 hPa Calm     89 % 0.0 mm
01:39 14.4 °C 12.6 °C 1012.1 hPa SSE 1.0 km/h 3.5 km/h 89 % 0.0 mm
01:44 14.5 °C 12.7 °C 1012.1 hPa SSE 1.4 km/h 3.5 km/h 89 % 0.0 mm
01:49 14.6 °C 12.8 °C 1013.1 hPa SSE 0.5 km/h 3.2 km/h 89 % 0.0 mm
01:54 14.6 °C 12.8 °C 1013.1 hPa South 0.2 km/h 4.0 km/h 89 % 0.0 mm
01:59 14.7 °C 12.9 °C 1013.1 hPa SSW 0.6 km/h 4.0 km/h 89 % 0.0 mm
02:04 14.8 °C 13.2 °C 1012.1 hPa NW 0.5 km/h 3.5 km/h 90 % 0.0 mm
02:09 14.8 °C 13.0 °C 1012.1 hPa NNW 0.2 km/h 2.1 km/h 89 % 0.0 mm
02:14 14.9 °C 13.1 °C 1012.1 hPa Calm     89 % 0.0 mm
02:19 14.9 °C 13.3 °C 1012.1 hPa Calm     90 % 0.0 mm
02:24 15.0 °C 13.2 °C 1012.1 hPa Calm     89 % 0.0 mm
02:29 15.1 °C 13.3 °C 1012.1 hPa West 0.2 km/h 2.1 km/h 89 % 0.0 mm
02:34 15.1 °C 13.3 °C 1013.1 hPa West 0.2 km/h 2.1 km/h 89 % 0.0 mm
02:37 15.1 °C 13.3 °C 1013.1 hPa NNW 0.2 km/h 2.6 km/h 89 % 0.0 mm
02:42 15.2 °C 13.4 °C 1013.1 hPa NNW 0.3 km/h 2.6 km/h 89 % 0.0 mm
02:47 15.2 °C 13.4 °C 1013.1 hPa North 0.2 km/h   89 % 0.0 mm
02:52 15.3 °C 13.5 °C 1012.1 hPa Calm     89 % 0.0 mm
02:57 15.3 °C 13.5 °C 1012.1 hPa Calm     89 % 0.0 mm
03:03 15.4 °C 13.6 °C 1012.1 hPa Calm     89 % 0.0 mm
03:08 15.4 °C 13.6 °C 1013.1 hPa Calm     89 % 0.0 mm
03:13 15.4 °C 13.6 °C 1013.1 hPa NNW 1.0 km/h 4.0 km/h 89 % 0.0 mm
03:18 15.5 °C 13.7 °C 1013.1 hPa NNW 1.0 km/h 4.0 km/h 89 % 0.0 mm
03:23 15.5 °C 13.7 °C 1012.1 hPa ENE 0.2 km/h 2.6 km/h 89 % 0.0 mm
03:28 15.6 °C 13.8 °C 1012.1 hPa ENE 0.2 km/h 2.6 km/h 89 % 0.0 mm
03:33 15.6 °C 13.8 °C 1012.1 hPa Calm     89 % 0.0 mm
03:38 15.6 °C 13.8 °C 1013.1 hPa Calm     89 % 0.0 mm
03:43 15.6 °C 13.8 °C 1013.1 hPa Calm     89 % 0.0 mm
03:48 15.6 °C 13.9 °C 1012.1 hPa Calm     90 % 0.0 mm
03:53 15.6 °C 13.9 °C 1012.1 hPa ENE 0.2 km/h 5.5 km/h 90 % 0.0 mm
03:58 15.7 °C 13.9 °C 1012.1 hPa South 1.0 km/h 5.5 km/h 89 % 0.0 mm
04:03 15.8 °C 14.0 °C 1013.1 hPa WSW 1.6 km/h 4.3 km/h 89 % 0.0 mm
04:08 15.9 °C 14.1 °C 1013.1 hPa South 1.4 km/h 5.0 km/h 89 % 0.0 mm
04:13 15.9 °C 14.1 °C 1013.1 hPa SSE 1.4 km/h 5.0 km/h 89 % 0.0 mm
04:18 15.9 °C 14.1 °C 1013.1 hPa NNW 2.1 km/h 6.1 km/h 89 % 0.0 mm
04:23 16.0 °C 14.2 °C 1013.1 hPa NNW 2.9 km/h 6.1 km/h 89 % 0.0 mm
04:28 16.0 °C 14.2 °C 1013.1 hPa WNW 2.6 km/h 5.8 km/h 89 % 0.0 mm
04:33 16.0 °C 14.2 °C 1013.1 hPa WSW 1.6 km/h 4.7 km/h 89 % 0.0 mm
04:38 16.0 °C 14.2 °C 1013.1 hPa West 0.5 km/h 2.6 km/h 89 % 0.0 mm
04:43 16.0 °C 14.2 °C 1013.1 hPa Calm   1.8 km/h 89 % 0.0 mm
04:48 16.0 °C 14.2 °C 1013.1 hPa WSW 1.0 km/h 5.5 km/h 89 % 0.0 mm
04:53 16.0 °C 14.2 °C 1013.1 hPa WSW 1.6 km/h 5.5 km/h 89 % 0.0 mm
04:58 15.9 °C 14.1 °C 1013.1 hPa WSW 0.6 km/h 5.5 km/h 89 % 0.0 mm
05:03 15.9 °C 14.1 °C 1013.1 hPa SSW 0.8 km/h 5.5 km/h 89 % 0.0 mm
05:08 16.0 °C 14.0 °C 1013.1 hPa South 1.6 km/h 5.5 km/h 88 % 0.0 mm
05:13 16.1 °C 13.9 °C 1013.1 hPa SE 1.8 km/h 10.1 km/h 87 % 0.0 mm
05:18 16.2 °C 13.8 °C 1013.1 hPa ESE 4.8 km/h 11.6 km/h 86 % 0.0 mm
05:23 16.5 °C 13.9 °C 1013.1 hPa ESE 7.1 km/h 11.6 km/h 85 % 0.0 mm
05:28 16.7 °C 13.8 °C 1013.1 hPa ESE 5.8 km/h 9.7 km/h 83 % 0.0 mm
05:33 16.8 °C 13.9 °C 1013.1 hPa ESE 3.7 km/h 6.9 km/h 83 % 0.0 mm
05:38 16.8 °C 13.7 °C 1013.1 hPa ESE 1.8 km/h 6.1 km/h 82 % 0.0 mm
05:43 16.9 °C 13.8 °C 1013.1 hPa SSE 2.6 km/h 10.1 km/h 82 % 0.0 mm
05:48 17.0 °C 13.7 °C 1013.1 hPa SE 3.7 km/h 10.1 km/h 81 % 0.0 mm
05:53 17.0 °C 13.7 °C 1013.1 hPa SE 4.8 km/h 19.1 km/h 81 % 0.0 mm
05:58 17.2 °C 13.7 °C 1013.1 hPa SE 7.4 km/h 19.1 km/h 80 % 0.0 mm
06:03 17.3 °C 13.8 °C 1014.1 hPa SSE 7.1 km/h 16.9 km/h 80 % 0.0 mm
06:08 17.3 °C 13.8 °C 1014.1 hPa SSE 6.4 km/h 9.7 km/h 80 % 0.0 mm
06:13 17.3 °C 13.6 °C 1014.1 hPa South 7.4 km/h 11.6 km/h 79 % 0.0 mm
06:18 17.3 °C 13.6 °C 1015.1 hPa South 6.0 km/h 11.6 km/h 79 % 0.0 mm
06:23 17.3 °C 13.8 °C 1015.1 hPa ESE 3.2 km/h 6.9 km/h 80 % 0.0 mm
06:28 17.2 °C 13.7 °C 1015.1 hPa East 2.7 km/h 6.4 km/h 80 % 0.0 mm
06:33 17.1 °C 13.8 °C 1015.1 hPa East 2.3 km/h 6.4 km/h 81 % 0.0 mm
06:38 17.1 °C 14.0 °C 1015.1 hPa ESE 3.1 km/h 6.9 km/h 82 % 0.3 mm
06:43 17.1 °C 13.8 °C 1015.1 hPa ESE 3.1 km/h 6.9 km/h 81 % 0.3 mm
06:48 17.0 °C 14.1 °C 1014.1 hPa East 1.0 km/h 4.3 km/h 83 % 0.3 mm
06:53 16.8 °C 13.9 °C 1014.1 hPa Calm     83 % 0.3 mm
06:58 16.7 °C 14.0 °C 1014.1 hPa Calm     84 % 0.3 mm
07:03 16.6 °C 14.1 °C 1015.1 hPa Calm     85 % 0.5 mm
07:08 16.5 °C 14.2 °C 1015.1 hPa Calm   3.2 km/h 86 % 0.5 mm
07:13 16.4 °C 14.1 °C 1015.1 hPa South 1.6 km/h 4.3 km/h 86 % 0.5 mm
07:18 16.3 °C 14.3 °C 1015.1 hPa South 1.8 km/h 4.3 km/h 88 % 0.5 mm
07:20 16.3 °C 14.3 °C 1015.1 hPa South 1.1 km/h 4.3 km/h 88 % 0.5 mm
07:25 16.3 °C 14.3 °C 1015.1 hPa North 0.5 km/h 4.3 km/h 88 % 0.5 mm
07:30 16.2 °C 14.4 °C 1015.1 hPa North 1.4 km/h 4.7 km/h 89 % 0.5 mm
07:35 16.2 °C 14.6 °C 1014.1 hPa North 1.1 km/h 4.7 km/h 90 % 0.5 mm
07:40 16.2 °C 14.6 °C 1014.1 hPa ESE 1.3 km/h 7.9 km/h 90 % 0.5 mm
07:45 16.3 °C 14.7 °C 1014.1 hPa SE 3.1 km/h 7.9 km/h 90 % 0.5 mm
07:50 16.3 °C 14.7 °C 1014.1 hPa South 2.6 km/h 5.8 km/h 90 % 0.5 mm
07:55 16.3 °C 14.7 °C 1014.1 hPa SW 2.6 km/h 6.1 km/h 90 % 0.3 mm
08:00 16.3 °C 14.8 °C 1014.1 hPa WSW 1.6 km/h 6.1 km/h 91 % 0.3 mm
08:05 16.4 °C 14.9 °C 1015.1 hPa SW 1.4 km/h 6.1 km/h 91 % 0.3 mm
08:10 16.4 °C 14.9 °C 1015.1 hPa SW 4.5 km/h 9.3 km/h 91 % 0.0 mm
08:15 16.3 °C 14.8 °C 1015.1 hPa SW 6.1 km/h 9.3 km/h 91 % 0.0 mm
08:20 16.3 °C 14.8 °C 1016.1 hPa WSW 5.3 km/h 9.3 km/h 91 % 0.0 mm
08:25 16.3 °C 14.8 °C 1016.1 hPa West 2.9 km/h 7.2 km/h 91 % 0.3 mm
08:30 16.2 °C 14.7 °C 1016.1 hPa West 1.6 km/h 4.7 km/h 91 % 0.3 mm
08:35 16.2 °C 14.7 °C 1016.8 hPa NW 1.0 km/h 4.7 km/h 91 % 0.8 mm
08:40 16.2 °C 14.7 °C 1016.8 hPa Calm     91 % 0.8 mm
08:45 16.2 °C 14.7 °C 1016.8 hPa Calm     91 % 1.0 mm
08:50 16.2 °C 14.7 °C 1016.8 hPa Calm   1.8 km/h 91 % 1.0 mm
08:55 16.2 °C 14.7 °C 1016.8 hPa ESE 0.2 km/h 3.5 km/h 91 % 1.3 mm
09:00 16.2 °C 14.9 °C 1016.8 hPa East 0.5 km/h 3.5 km/h 92 % 1.3 mm
09:05 16.2 °C 14.9 °C 1016.1 hPa ENE 0.3 km/h 2.6 km/h 92 % 1.3 mm
09:10 16.2 °C 14.9 °C 1016.1 hPa ENE 0.8 km/h 4.0 km/h 92 % 1.5 mm
09:15 16.2 °C 14.9 °C 1016.1 hPa ENE 1.9 km/h 8.7 km/h 92 % 1.8 mm
09:20 16.2 °C 14.9 °C 1016.1 hPa East 2.7 km/h 8.7 km/h 92 % 1.8 mm
09:21 16.2 °C 14.9 °C 1016.1 hPa ESE 2.9 km/h 8.7 km/h 92 % 1.8 mm
09:26 16.2 °C 14.9 °C 1016.1 hPa West 4.5 km/h 7.9 km/h 92 % 1.8 mm
09:31 16.3 °C 15.2 °C 1016.1 hPa WNW 3.5 km/h 7.9 km/h 93 % 1.5 mm
09:36 16.3 °C 15.2 °C 1016.1 hPa West 2.4 km/h 5.8 km/h 93 % 1.3 mm
09:41 16.3 °C 15.2 °C 1016.1 hPa SW 4.3 km/h 7.9 km/h 93 % 1.0 mm
09:46 16.3 °C 15.2 °C 1016.1 hPa SSW 5.0 km/h 7.9 km/h 93 % 1.0 mm
09:51 16.3 °C 15.2 °C 1016.8 hPa South 2.3 km/h 6.1 km/h 93 % 1.3 mm
09:56 16.3 °C 15.2 °C 1016.8 hPa South 1.6 km/h 6.1 km/h 93 % 1.3 mm
10:01 16.3 °C 15.2 °C 1016.8 hPa SSW 3.9 km/h 7.9 km/h 93 % 1.3 mm
10:06 16.2 °C 15.1 °C 1016.1 hPa SSW 4.5 km/h 7.9 km/h 93 % 1.5 mm
10:11 16.2 °C 15.1 °C 1016.1 hPa South 3.5 km/h 6.4 km/h 93 % 1.3 mm
10:16 16.2 °C 15.1 °C 1016.1 hPa South 3.4 km/h 5.8 km/h 93 % 1.3 mm
10:21 16.2 °C 15.1 °C 1016.8 hPa SSW 2.9 km/h 5.8 km/h 93 % 1.3 mm
10:26 16.1 °C 14.9 °C 1016.8 hPa SSW 1.6 km/h 5.0 km/h 93 % 1.8 mm
10:31 16.1 °C 14.9 °C 1016.8 hPa North 0.2 km/h   93 % 1.8 mm
10:36 16.1 °C 14.9 °C 1016.1 hPa NE 0.5 km/h 4.0 km/h 93 % 2.0 mm
10:41 16.1 °C 14.9 °C 1016.1 hPa NE 0.5 km/h 4.0 km/h 93 % 2.3 mm
10:46 16.2 °C 15.1 °C 1016.1 hPa Calm     93 % 2.5 mm
10:51 16.2 °C 15.1 °C 1016.1 hPa Calm     93 % 2.8 mm
10:56 16.3 °C 15.2 °C 1016.1 hPa Calm   2.1 km/h 93 % 2.8 mm
11:01 16.3 °C 15.2 °C 1016.1 hPa Calm   2.1 km/h 93 % 2.8 mm
11:06 16.3 °C 15.2 °C 1016.1 hPa SE 1.0 km/h 4.0 km/h 93 % 2.5 mm
11:11 16.4 °C 15.3 °C 1016.1 hPa SE 2.3 km/h 4.3 km/h 93 % 2.5 mm
11:16 16.4 °C 15.3 °C 1016.1 hPa SE 1.8 km/h 4.3 km/h 93 % 2.5 mm
11:21 16.3 °C 15.2 °C 1016.1 hPa SSE 0.5 km/h 4.0 km/h 93 % 2.5 mm
11:26 16.3 °C 15.2 °C 1016.1 hPa SSE 0.3 km/h 3.5 km/h 93 % 2.3 mm
11:31 16.3 °C 15.2 °C 1016.1 hPa South 1.8 km/h 4.3 km/h 93 % 2.0 mm
11:36 16.3 °C 15.2 °C 1016.8 hPa SW 3.2 km/h 6.4 km/h 93 % 2.0 mm
11:41 16.3 °C 15.2 °C 1016.8 hPa WSW 4.5 km/h 6.4 km/h 93 % 1.8 mm
11:46 16.2 °C 15.1 °C 1016.8 hPa WSW 4.0 km/h 6.4 km/h 93 % 1.8 mm
11:51 16.2 °C 15.1 °C 1018.2 hPa West 1.6 km/h 5.8 km/h 93 % 1.8 mm
11:56 16.2 °C 15.1 °C 1018.2 hPa West 0.5 km/h 2.6 km/h 93 % 2.0 mm
12:01 16.2 °C 15.1 °C 1018.2 hPa West 0.5 km/h 2.6 km/h 93 % 2.3 mm
12:06 16.2 °C 15.1 °C 1016.8 hPa NE 0.3 km/h 3.2 km/h 93 % 2.3 mm
12:11 16.2 °C 15.2 °C 1016.8 hPa NE 0.3 km/h 3.2 km/h 94 % 2.5 mm
12:12 16.2 °C 15.2 °C 1016.8 hPa NE 0.3 km/h 3.2 km/h 94 % 2.5 mm
12:17 16.2 °C 15.2 °C 1016.8 hPa ENE 0.3 km/h 3.2 km/h 94 % 2.8 mm
12:22 16.2 °C 15.2 °C 1016.8 hPa East 0.5 km/h 4.0 km/h 94 % 3.0 mm
12:27 16.3 °C 15.3 °C 1016.8 hPa ESE 1.6 km/h 5.8 km/h 94 % 3.0 mm
12:32 16.3 °C 15.3 °C 1016.8 hPa SE 2.1 km/h 5.8 km/h 94 % 3.0 mm
12:37 16.4 °C 15.4 °C 1016.8 hPa ESE 0.6 km/h 4.0 km/h 94 % 3.3 mm
12:42 16.4 °C 15.4 °C 1016.8 hPa NE 0.5 km/h 4.0 km/h 94 % 3.0 mm
12:47 16.5 °C 15.6 °C 1016.8 hPa ENE 0.8 km/h 4.0 km/h 94 % 3.0 mm
12:52 16.6 °C 15.6 °C 1016.8 hPa ENE 0.8 km/h 4.3 km/h 94 % 2.5 mm
12:57 16.7 °C 15.7 °C 1016.8 hPa ENE 0.6 km/h 4.3 km/h 94 % 2.3 mm
13:02 16.8 °C 15.8 °C 1016.8 hPa East 0.2 km/h 1.8 km/h 94 % 1.8 mm
13:07 16.9 °C 15.9 °C 1016.8 hPa East 0.6 km/h 4.3 km/h 94 % 1.8 mm
13:12 17.0 °C 15.8 °C 1016.8 hPa East 1.0 km/h 4.3 km/h 93 % 1.5 mm
13:17 17.2 °C 16.1 °C 1016.8 hPa East 0.3 km/h 3.2 km/h 93 % 1.3 mm
13:22 17.3 °C 16.2 °C 1015.1 hPa East 0.3 km/h 5.0 km/h 93 % 1.0 mm
13:27 17.6 °C 16.4 °C 1015.1 hPa East 1.8 km/h 5.5 km/h 93 % 0.8 mm
13:32 17.8 °C 16.5 °C 1015.1 hPa ESE 2.1 km/h 5.5 km/h 92 % 0.5 mm
13:37 18.0 °C 16.7 °C 1016.1 hPa South 2.4 km/h 5.8 km/h 92 % 0.3 mm
13:42 18.3 °C 16.8 °C 1016.1 hPa SSW 4.0 km/h 6.9 km/h 91 % 0.3 mm
13:47 18.5 °C 17.0 °C 1016.1 hPa South 4.8 km/h 7.6 km/h 91 % 0.3 mm
13:52 18.6 °C 16.9 °C 1016.1 hPa SSE 5.1 km/h 7.6 km/h 90 % 0.3 mm
13:57 18.8 °C 16.9 °C 1016.1 hPa SSE 4.2 km/h 6.9 km/h 89 % 0.3 mm
14:03 18.9 °C 16.9 °C 1016.1 hPa SE 4.7 km/h 7.6 km/h 88 % 0.3 mm
14:08 19.0 °C 16.8 °C 1016.1 hPa SE 4.2 km/h 7.6 km/h 87 % 0.0 mm
14:13 19.1 °C 16.9 °C 1016.1 hPa SSE 2.4 km/h 5.5 km/h 87 % 0.0 mm
14:18 19.2 °C 16.8 °C 1016.1 hPa SSE 2.3 km/h 4.3 km/h 86 % 0.0 mm
14:23 19.3 °C 16.9 °C 1016.1 hPa South 2.3 km/h 4.7 km/h 86 % 0.0 mm
14:27 19.4 °C 17.0 °C 1016.1 hPa SSW 3.5 km/h 6.9 km/h 86 % 0.0 mm
14:33 19.4 °C 16.8 °C 1016.1 hPa SW 4.7 km/h 6.9 km/h 85 % 0.0 mm
14:37 19.5 °C 16.9 °C 1016.8 hPa South 4.2 km/h 6.9 km/h 85 % 0.0 mm
14:42 19.5 °C 16.9 °C 1016.8 hPa SSE 3.7 km/h 6.9 km/h 85 % 0.0 mm
14:43 19.5 °C 16.9 °C 1016.8 hPa SSE 3.7 km/h 6.9 km/h 85 % 0.0 mm
14:48 19.6 °C 16.4 °C 1016.1 hPa SE 3.2 km/h 5.8 km/h 82 % 0.0 mm
14:49 19.6 °C 16.6 °C 1016.1 hPa SE 3.4 km/h 5.8 km/h 83 % 0.0 mm
14:54 19.6 °C 16.6 °C 1016.1 hPa SE 3.1 km/h 6.1 km/h 83 % 0.0 mm
14:59 19.7 °C 16.7 °C 1016.1 hPa SSW 3.1 km/h 6.1 km/h 83 % 0.0 mm
15:04 19.8 °C 16.8 °C 1016.1 hPa SSW 3.7 km/h 6.4 km/h 83 % 0.0 mm
15:09 19.9 °C 16.9 °C 1016.1 hPa SSW 4.0 km/h 6.9 km/h 83 % 0.0 mm
15:14 20.0 °C 16.8 °C 1016.1 hPa SW 4.0 km/h 6.9 km/h 82 % 0.0 mm
15:19 20.1 °C 16.9 °C 1016.1 hPa WSW 4.2 km/h 6.9 km/h 82 % 0.0 mm
15:24 20.1 °C 16.9 °C 1016.1 hPa SSW 4.3 km/h 7.9 km/h 82 % 0.0 mm
15:29 20.3 °C 17.1 °C 1016.1 hPa South 4.8 km/h 10.1 km/h 82 % 0.0 mm
15:34 20.4 °C 17.1 °C 1016.1 hPa South 4.8 km/h 10.1 km/h 81 % 0.0 mm
15:39 20.5 °C 17.1 °C 1016.1 hPa SSE 4.7 km/h 7.6 km/h 81 % 0.0 mm
15:41 20.6 °C 17.2 °C 1016.1 hPa SSE 4.5 km/h 6.9 km/h 81 % 0.0 mm
15:46 20.8 °C 17.0 °C 1016.1 hPa SSE 4.5 km/h 6.4 km/h 79 % 0.0 mm
15:51 20.9 °C 17.1 °C 1016.1 hPa South 3.1 km/h 6.1 km/h 79 % 0.0 mm
15:56 20.9 °C 16.7 °C 1016.1 hPa SSW 1.6 km/h 4.0 km/h 77 % 0.0 mm
16:01 20.9 °C 16.7 °C 1016.1 hPa South 2.3 km/h 5.5 km/h 77 % 0.0 mm
16:06 21.1 °C 16.7 °C 1016.1 hPa SSE 3.5 km/h 9.7 km/h 76 % 0.0 mm
16:11 21.2 °C 16.6 °C 1016.1 hPa SE 4.3 km/h 9.7 km/h 75 % 0.0 mm
16:16 21.3 °C 16.9 °C 1016.1 hPa SE 4.8 km/h 9.3 km/h 76 % 0.0 mm
16:21 21.3 °C 16.7 °C 1016.1 hPa SSE 5.0 km/h 10.5 km/h 75 % 0.0 mm
16:26 21.2 °C 15.7 °C 1016.1 hPa SSW 5.1 km/h 10.5 km/h 71 % 0.0 mm
16:31 21.2 °C 15.7 °C 1016.1 hPa SW 3.9 km/h 6.4 km/h 71 % 0.0 mm
16:37 21.3 °C 15.6 °C 1016.1 hPa WSW 2.3 km/h 4.3 km/h 70 % 0.0 mm
16:42 21.3 °C 15.8 °C 1016.1 hPa SW 1.4 km/h 4.0 km/h 71 % 0.0 mm
16:47 21.5 °C 16.0 °C 1016.1 hPa South 2.9 km/h 7.2 km/h 71 % 0.0 mm
16:51 21.5 °C 16.0 °C 1016.1 hPa South 3.7 km/h 5.0 km/h 71 % 0.0 mm
16:52 21.6 °C 16.1 °C 1016.1 hPa South 3.7 km/h 5.0 km/h 71 % 0.0 mm
16:53 21.6 °C 16.1 °C 1016.1 hPa South 3.4 km/h 5.8 km/h 71 % 0.0 mm
16:54 21.6 °C 16.1 °C 1016.1 hPa South 3.5 km/h 5.8 km/h 71 % 0.0 mm
16:55 21.6 °C 16.1 °C 1016.1 hPa SSW 3.9 km/h 5.8 km/h 71 % 0.0 mm
16:56 21.6 °C 16.1 °C 1016.1 hPa SSW 4.0 km/h 5.8 km/h 71 % 0.0 mm
16:57 21.6 °C 16.1 °C 1016.1 hPa South 4.0 km/h 5.8 km/h 71 % 0.0 mm
16:58 21.6 °C 16.1 °C 1016.1 hPa South 3.7 km/h 5.8 km/h 71 % 0.0 mm
16:59 21.6 °C 16.1 °C 1016.1 hPa South 3.9 km/h 5.8 km/h 71 % 0.0 mm
17:00 21.6 °C 16.1 °C 1016.1 hPa SSW 3.9 km/h 5.8 km/h 71 % 0.0 mm
17:01 21.6 °C 16.1 °C 1016.1 hPa SSW 3.7 km/h 5.8 km/h 71 % 0.0 mm
17:02 21.6 °C 16.1 °C 1016.1 hPa SSW 3.7 km/h 5.8 km/h 71 % 0.0 mm
17:03 21.6 °C 16.1 °C 1016.1 hPa SSW 4.0 km/h 5.5 km/h 71 % 0.0 mm
17:04 21.6 °C 16.1 °C 1016.1 hPa SSW 4.0 km/h 5.5 km/h 71 % 0.0 mm
17:05 21.6 °C 15.9 °C 1016.1 hPa SSW 4.2 km/h 5.5 km/h 70 % 0.0 mm
17:06 21.7 °C 16.0 °C 1016.1 hPa SSW 4.2 km/h 5.5 km/h 70 % 0.0 mm
17:07 21.7 °C 16.0 °C 1016.1 hPa SSW 4.2 km/h 5.5 km/h 70 % 0.0 mm
17:08 21.7 °C 16.0 °C 1016.1 hPa SSW 4.5 km/h 5.5 km/h 70 % 0.0 mm
17:09 21.7 °C 15.8 °C 1016.1 hPa SW 4.3 km/h 5.5 km/h 69 % 0.0 mm
17:10 21.7 °C 15.8 °C 1016.1 hPa SW 4.5 km/h 6.1 km/h 69 % 0.0 mm
17:20 21.8 °C 15.8 °C 1016.1 hPa SW 4.5 km/h 6.1 km/h 69 % 0.0 mm
17:25 21.8 °C 15.6 °C 1016.1 hPa WSW 2.6 km/h 5.5 km/h 68 % 0.0 mm
17:30 21.8 °C 15.6 °C 1016.1 hPa SW 2.9 km/h 5.0 km/h 68 % 0.0 mm
17:35 21.7 °C 15.6 °C 1016.8 hPa WSW 3.2 km/h 5.0 km/h 68 % 0.0 mm
17:40 21.5 °C 15.6 °C 1016.8 hPa WSW 3.4 km/h 5.0 km/h 69 % 0.0 mm
17:47 21.3 °C 14.9 °C 1016.8 hPa SW 1.3 km/h 2.6 km/h 67 % 0.0 mm
17:52 21.1 °C 14.9 °C 1016.1 hPa SSW 2.7 km/h 4.3 km/h 68 % 0.0 mm
17:57 20.9 °C 15.4 °C 1016.1 hPa SSW 1.6 km/h 4.3 km/h 71 % 0.0 mm
18:02 20.7 °C 15.3 °C 1016.1 hPa SSW 0.3 km/h 2.1 km/h 71 % 0.0 mm
18:07 20.4 °C 15.2 °C 1016.1 hPa Calm     72 % 0.0 mm
18:12 20.3 °C 15.3 °C 1016.1 hPa WSW 0.5 km/h 4.3 km/h 73 % 0.0 mm
18:17 20.1 °C 14.9 °C 1016.1 hPa SW 2.3 km/h 5.0 km/h 72 % 0.0 mm
18:22 20.0 °C 14.6 °C 1016.1 hPa WSW 3.4 km/h 5.8 km/h 71 % 0.0 mm
18:27 19.9 °C 14.5 °C 1016.1 hPa WSW 3.9 km/h 7.9 km/h 71 % 0.0 mm
18:33 19.8 °C 14.6 °C 1016.1 hPa WSW 4.5 km/h 7.9 km/h 72 % 0.0 mm
18:38 19.8 °C 14.8 °C 1016.8 hPa WSW 3.4 km/h 6.1 km/h 73 % 0.0 mm
18:43 19.7 °C 15.3 °C 1016.8 hPa WSW 1.4 km/h 4.3 km/h 76 % 0.0 mm
18:48 19.7 °C 15.6 °C 1016.8 hPa WSW 0.6 km/h 2.6 km/h 77 % 0.0 mm
18:53 19.6 °C 15.7 °C 1016.1 hPa WNW 0.5 km/h 3.2 km/h 78 % 0.0 mm
18:58 19.5 °C 15.8 °C 1016.1 hPa WNW 1.1 km/h 4.3 km/h 79 % 0.0 mm
19:03 19.4 °C 15.8 °C 1016.1 hPa WNW 1.4 km/h 4.3 km/h 80 % 0.0 mm
19:08 19.4 °C 15.8 °C 1016.1 hPa West 1.1 km/h 4.0 km/h 80 % 0.0 mm
19:13 19.3 °C 15.8 °C 1016.1 hPa SW 1.1 km/h 4.0 km/h 80 % 0.0 mm
19:18 19.1 °C 15.8 °C 1016.1 hPa NW 1.8 km/h 4.7 km/h 81 % 0.0 mm
19:23 19.0 °C 15.7 °C 1016.1 hPa NNW 1.3 km/h 4.7 km/h 81 % 0.0 mm
19:28 18.9 °C 15.8 °C 1016.1 hPa North 0.2 km/h   82 % 0.0 mm
19:33 18.9 °C 15.8 °C 1015.1 hPa Calm     82 % 0.0 mm
19:38 18.8 °C 15.8 °C 1015.1 hPa Calm     83 % 0.0 mm
19:43 18.7 °C 15.8 °C 1015.1 hPa NW 0.2 km/h 1.8 km/h 83 % 0.0 mm
19:48 18.7 °C 15.9 °C 1016.1 hPa NW 0.2 km/h 1.8 km/h 84 % 0.0 mm
19:53 18.5 °C 15.7 °C 1016.1 hPa Calm   4.3 km/h 84 % 0.0 mm
19:58 18.4 °C 15.8 °C 1016.1 hPa NNW 0.8 km/h 4.3 km/h 85 % 0.0 mm
20:03 18.4 °C 15.8 °C 1016.1 hPa North 0.8 km/h 3.5 km/h 85 % 0.0 mm
20:08 18.2 °C 15.6 °C 1016.1 hPa Calm     85 % 0.0 mm
20:09 18.2 °C 15.6 °C 1016.1 hPa Calm     85 % 0.0 mm
20:14 18.2 °C 15.8 °C 1016.1 hPa North 0.2 km/h 4.3 km/h 86 % 0.0 mm
20:19 18.0 °C 15.6 °C 1016.8 hPa North 0.2 km/h 4.3 km/h 86 % 0.0 mm
20:24 18.0 °C 15.8 °C 1016.8 hPa North 0.2 km/h 2.6 km/h 87 % 0.0 mm
20:29 17.9 °C 15.7 °C 1016.8 hPa North 0.3 km/h 2.6 km/h 87 % 0.0 mm
20:34 17.9 °C 15.7 °C 1016.8 hPa Calm     87 % 0.0 mm
20:39 17.7 °C 15.7 °C 1016.8 hPa Calm     88 % 0.0 mm
20:44 17.7 °C 15.7 °C 1016.8 hPa Calm     88 % 0.0 mm
20:49 17.7 °C 15.7 °C 1016.8 hPa Calm     88 % 0.0 mm
20:54 17.6 °C 15.6 °C 1016.8 hPa Calm     88 % 0.0 mm
20:59 17.5 °C 15.3 °C 1016.8 hPa Calm     87 % 0.0 mm
21:04 17.5 °C 15.5 °C 1018.2 hPa Calm   4.0 km/h 88 % 0.0 mm
21:09 17.5 °C 15.5 °C 1018.2 hPa NW 1.4 km/h 4.7 km/h 88 % 0.0 mm
21:14 17.4 °C 15.4 °C 1018.2 hPa NW 1.3 km/h 4.7 km/h 88 % 0.0 mm
21:19 17.4 °C 15.4 °C 1016.8 hPa Calm     88 % 0.0 mm
21:24 17.3 °C 15.3 °C 1016.8 hPa Calm     88 % 0.0 mm
21:29 17.3 °C 15.4 °C 1016.8 hPa Calm     89 % 0.0 mm
21:34 17.2 °C 15.4 °C 1016.8 hPa Calm     89 % 0.0 mm
21:39 17.2 °C 15.4 °C 1016.8 hPa Calm   3.2 km/h 89 % 0.0 mm
21:44 17.1 °C 15.3 °C 1016.8 hPa NNW 0.2 km/h 3.2 km/h 89 % 0.0 mm
21:49 17.0 °C 15.2 °C 1016.8 hPa NE 0.3 km/h 3.5 km/h 89 % 0.0 mm
21:54 16.9 °C 15.1 °C 1016.8 hPa NNW 1.3 km/h 4.7 km/h 89 % 0.0 mm
21:59 16.8 °C 15.0 °C 1016.8 hPa NW 1.1 km/h 4.7 km/h 89 % 0.0 mm
22:04 16.7 °C 14.9 °C 1016.8 hPa Calm     89 % 0.0 mm
22:09 16.6 °C 14.8 °C 1016.8 hPa Calm     89 % 0.0 mm
22:14 16.5 °C 14.8 °C 1016.8 hPa Calm     90 % 0.0 mm
22:19 16.5 °C 14.8 °C 1016.8 hPa Calm     90 % 0.0 mm
22:24 16.3 °C 14.7 °C 1016.8 hPa Calm     90 % 0.0 mm
22:29 16.3 °C 14.8 °C 1016.8 hPa Calm     91 % 0.0 mm
22:34 16.2 °C 14.7 °C 1016.8 hPa Calm   2.6 km/h 91 % 0.0 mm
22:39 16.1 °C 14.6 °C 1016.8 hPa NNE 0.3 km/h 2.6 km/h 91 % 0.0 mm
22:44 16.1 °C 14.6 °C 1016.8 hPa North 0.2 km/h 2.6 km/h 91 % 0.0 mm
22:49 16.0 °C 14.6 °C 1016.8 hPa Calm     91 % 0.0 mm
22:54 16.0 °C 14.6 °C 1016.8 hPa Calm     91 % 0.0 mm
22:59 15.9 °C 14.6 °C 1016.8 hPa Calm     92 % 0.0 mm
23:04 15.9 °C 14.6 °C 1016.8 hPa North 0.2 km/h 2.6 km/h 92 % 0.0 mm
23:09 15.9 °C 14.6 °C 1016.8 hPa North 0.2 km/h 2.6 km/h 92 % 0.0 mm
23:14 15.9 °C 14.6 °C 1016.8 hPa Calm     92 % 0.0 mm
23:19 15.9 °C 14.6 °C 1016.8 hPa Calm     92 % 0.0 mm
23:24 15.9 °C 14.6 °C 1016.8 hPa Calm     92 % 0.0 mm
23:29 15.8 °C 14.5 °C 1016.8 hPa Calm     92 % 0.0 mm
23:34 15.8 °C 14.7 °C 1016.8 hPa NW 0.8 km/h 4.0 km/h 93 % 0.0 mm
23:39 15.8 °C 14.7 °C 1016.8 hPa NW 1.0 km/h 4.0 km/h 93 % 0.0 mm
23:44 15.7 °C 14.6 °C 1016.8 hPa Calm   1.4 km/h 93 % 0.0 mm
23:49 15.6 °C 14.4 °C 1018.2 hPa Calm     93 % 0.0 mm
23:54 15.6 °C 14.4 °C 1018.2 hPa Calm     93 % 0.0 mm
23:59 15.5 °C 14.4 °C 1018.2 hPa North 0.2 km/h 2.1 km/h 93 % 0.0 mm
Vremenska postaja Senovo
Podatki zbrani iz Weather Underground - 3 mb

Script developed by  Jim McMurry - jmcmurry@mwt.net Adapted for the template by  Wim van der Kuil - Leuven-Template.eu

Vremenski podatki so objavljeni na:

WeatherCloud

Weather Underground

AWEKAS

HAMweather, WeatherForYou, PWS Weather

MapView

Geostik

Slovenia weather network

Oprema, ki se uporablja:

Vremenski program
Cumulus

Cumulus